User: anonymous   Login
Location: Unspecified
(0.0000°N, 0.0000°E)
Time: 01:33:49
(UTC+00:00)
Language:

JAS-1B - Orbit

View from above orbital plane
View from above orbital plane
View from above satellite
View from above satellite

Ground track
Ground track

The orbit data is extracted from the following two-line orbital elements,

1 20480U 90013C   17117.88856551 -.00000020 +00000-0 +21171-4 0  9999
2 20480 099.0460 260.4965 0540899 144.8547 218.9518 12.83415994275222
Epoch (UTC): 27 April 2017 21:19:32
Eccentricity: 0.0540899
inclination: 99.0460°
perigee height: 911 km
apogee height: 1744 km
right ascension of ascending node: 260.4965°
argument of perigee: 144.8547°
revolutions per day: 12.83415994
mean anomaly at epoch: 218.9518°
orbit number at epoch: 27522

The dashed part of the orbit path shows where the satellite is in the earth's shadow,  

DLR